Flag for U.S.A. Weather past 2 weeks in Arlington, Texas, U.S.A.

Now
64 °F

Clear.


Feels Like: 64 °F
Forecast: 59 / 82 °F
Wind: No wind

Location: Arlington Municipal Airport

Current Time: Oct 21, 2014 at 1:03:10 AM

Latest Report: Oct 20, 2014 at 11:53 PM


Visibility: 10 mi

Pressure: 30.03 "Hg

Humidity: 78%

Dew point: 57 °F

Location of ArlingtonLocation

Historic Weather in Arlington — Graph

°F

Arlington temperature yesterday

Maximum temperature yesterday: 82 °F (at 2:53 PM)
Minimum temperature yesterday: 56 °F (at 7:53 AM)
Average temperature yesterday: 69 °F

Past Weeks' High & Low Weather Summary

 TemperatureHumidityPressure
High96 °F (Oct 7, 3:53 PM)93% (Oct 13, 5:02 AM)30.15 "Hg (Oct 13, 5:02 AM)
Low47 °F (Oct 15, 5:53 AM)18% (Oct 16, 1:53 PM)29.55 "Hg (Oct 13, 1:53 AM)
Average71 °F62%29.93 "Hg
* Reported Oct 5 11:53 PM — Oct 20 11:53 PM, Arlington, Weather by CustomWeather, © 2014

Note: Actual official high and low records may vary slightly from our data, if they occured in-between our weather recording intervals... More about our weather records

Advertising

Arlington weather history for previous 24 hours

 ConditionsComfort  
Time TempWeatherWind HumidityBarometerVisibility
11:53 PM
Oct 20
64 °FClear.No wind78%30.03 "Hg10 mi
10:53 PM63 °FClear.No wind87%30.04 "Hg10 mi
9:53 PM69 °FClear.3 mph70%30.03 "Hg10 mi
8:53 PM71 °FClear.6 mph66%30.01 "Hg10 mi
7:53 PM73 °FClear.7 mph62%30.01 "Hg10 mi
6:53 PM78 °FWarm.6 mph50%29.99 "Hg10 mi
5:53 PM81 °FSunny.5 mph42%29.98 "Hg10 mi
4:53 PM82 °FSunny.5 mph40%29.99 "Hg10 mi
3:53 PM82 °FPartly sunny.10 mph41%29.99 "Hg10 mi
2:53 PM82 °FSunny.No wind44%30.00 "Hg10 mi
1:53 PM81 °FScattered clouds.7 mph49%30.02 "Hg10 mi
12:53 PM78 °FSunny.5 mph56%30.05 "Hg10 mi
11:53 AM76 °FSunny.6 mph58%30.08 "Hg10 mi
10:53 AM72 °FSunny.5 mph61%30.09 "Hg10 mi
9:53 AM66 °FSunny.3 mph73%30.09 "Hg10 mi
8:53 AM62 °FSunny.No wind80%30.08 "Hg10 mi
7:53 AM56 °FClear.No wind87%30.06 "Hg7 mi
6:53 AM57 °FClear.No wind83%30.05 "Hg10 mi
5:53 AM57 °FClear.No wind87%30.04 "Hg9 mi
4:53 AM57 °FClear.No wind87%30.03 "Hg10 mi
3:53 AM61 °FClear.No wind78%30.02 "Hg10 mi
2:53 AM59 °FClear.No wind84%30.03 "Hg10 mi
1:53 AM59 °FClear.No wind87%30.03 "Hg10 mi
Weather by CustomWeather, © 2014

See weather overviewHow to use our weather pages